Weather History for KMCF - November, 2012

Change the Weather History Date:

Tuesday, November 13, 2012

  Actual Average Record
Temperature  
Mean Temperature 72 °F -  
Max Temperature 82 °F 76 °F 82 °F (1998)
Min Temperature 63 °F 58 °F 50 °F (2014)
Cooling Degree Days 8    
Growing Degree Days 22 (Base 50)    
Moisture  
Dew Point 67 °F    
Average Humidity 85    
Maximum Humidity 100    
Minimum Humidity 63    
Precipitation  
Precipitation 0.00 in - - ()
Sea Level Pressure  
Sea Level Pressure 30.15 in    
Wind  
Wind Speed 3 mph (NNE)    
Max Wind Speed 7 mph    
Max Gust Speed -    
Visibility 10 miles    
Events      
Averages and records for this station are not official NWS values.
T = Trace of Precipitation, MM = Missing Value Source: NWS Daily Summary

Daily Weather History Graph

Daily Weather History Graph

Search for Another Location

Airport or City:

Trip Planner

Search our weather history database for the weather conditions in past years. The results will help you decide how hot, cold, wet, or windy it might be!

Date:

Astronomy

Nov. 13, 2012 Rise Set
Actual Time 6:50 AM EST 5:38 PM EST
Civil Twilight 6:25 AM EST 6:03 PM EST
Nautical Twilight 5:57 AM EST 6:31 PM EST
Astronomical Twilight 5:29 AM EST 6:59 PM EST
Moon 6:26 AM EST (11/13) 5:32 PM EST (11/13)
Length of Visible Light 11h 37m
Length of Day
10h 48m
Waning Crescent, 0% of the Moon is Illuminated
Nov 13
Waning Crescent
Nov 13
New
Nov 20
First Quarter
Nov 28
Full
Dec 6
Last Quarter

Hourly Weather History & Observations

Time (EST) Temp. Heat Index Dew Point Humidity Pressure Visibility Wind Dir Wind Speed Gust Speed Precip Events Conditions
12:55 AM 67.1 °F - 65.7 °F 95% 30.17 in 10.0 mi East 5.8 mph - N/A   Overcast
1:55 AM 68.0 °F - 66.6 °F 95% 30.17 in 10.0 mi Calm Calm - N/A   Overcast
2:55 AM 67.1 °F - 65.3 °F 94% 30.15 in 10.0 mi Calm Calm - N/A   Partly Cloudy
3:55 AM 64.9 °F - 64.6 °F 99% 30.16 in 10.0 mi Calm Calm - N/A   Scattered Clouds
4:55 AM 64.2 °F - 63.1 °F 96% 30.15 in 10.0 mi Calm Calm - N/A   Mostly Cloudy
5:55 AM 65.3 °F - 64.9 °F 99% 30.16 in 10.0 mi NE 3.5 mph - N/A   Overcast
6:55 AM 63.7 °F - 63.0 °F 97% 30.17 in 10.0 mi ENE 4.6 mph - N/A   Clear
7:55 AM 67.3 °F - 67.3 °F 100% 30.18 in 10.0 mi East 6.9 mph - N/A   Overcast
8:55 AM 70.7 °F - 70.7 °F 100% 30.19 in 10.0 mi ENE 5.8 mph - N/A   Mostly Cloudy
9:55 AM 74.7 °F - 68.5 °F 81% 30.20 in 10.0 mi East 4.6 mph - N/A   Clear
10:55 AM 81.0 °F 84.1 °F 68.9 °F 67% 30.19 in 10.0 mi Variable 3.5 mph - N/A   Partly Cloudy
11:50 AM 82.4 °F 86.3 °F 69.8 °F 66% 30.17 in 10.0 mi ESE 3.5 mph - N/A   Mostly Cloudy
11:55 AM 81.7 °F 85.4 °F 70.2 °F 68% 30.17 in 10.0 mi Calm Calm - N/A   Mostly Cloudy
12:10 PM 80.6 °F 83.9 °F 69.8 °F 70% 30.16 in 10.0 mi North 3.5 mph - N/A   Mostly Cloudy
12:55 PM 80.2 °F 83.0 °F 68.5 °F 67% 30.14 in 10.0 mi West 3.5 mph - N/A   Partly Cloudy
1:55 PM 79.2 °F - 67.6 °F 68% 30.12 in 10.0 mi WNW 4.6 mph - N/A   Partly Cloudy
2:55 PM 79.0 °F - 67.8 °F 69% 30.12 in 10.0 mi NW 4.6 mph - N/A   Clear
3:55 PM 79.9 °F - 66.4 °F 63% 30.11 in 10.0 mi NNW 4.6 mph - N/A   Clear
4:55 PM 77.7 °F - 68.9 °F 74% 30.11 in 10.0 mi NNW 5.8 mph - N/A   Clear
5:55 PM 72.9 °F - 67.5 °F 83% 30.11 in 10.0 mi North 5.8 mph - N/A   Clear
6:55 PM 70.0 °F - 66.6 °F 89% 30.12 in 10.0 mi North 5.8 mph - N/A   Clear
7:55 PM 68.7 °F - 66.9 °F 94% 30.14 in 10.0 mi North 4.6 mph - N/A   Clear
8:55 PM 67.6 °F - 66.0 °F 95% 30.14 in 10.0 mi NNE 3.5 mph - N/A   Clear
9:55 PM 65.3 °F - 64.2 °F 96% 30.16 in 10.0 mi Calm Calm - N/A   Clear
10:55 PM 65.8 °F - 65.3 °F 98% 30.17 in 10.0 mi North 4.6 mph - N/A   Clear
11:55 PM 65.3 °F - 64.9 °F 99% 30.15 in 10.0 mi Calm Calm - N/A   Clear